Location: Newark
(31.5350°N, 35.0986°E)
Time: 00:21:01
(UTC+00:00)

Tiros 1 - Visible Passes

Search period start: 19 October 2019 00:00
Search period end: 29 October 2019 00:00
Orbit: 630 x 664 km, 48.4° (Epoch: 18 October)

Date Brightness Start Highest point End Pass type
(mag) Time Alt. Az. Time Alt. Az. Time Alt. Az.
19 Oct 9.8 01:26:14 11° N 01:26:14 11° N 01:26:47 10° NNE visible
19 Oct 9.7 03:07:31 10° N 03:08:27 10° N 03:09:23 10° NNE visible
20 Oct 9.7 01:51:14 10° N 01:51:20 10° N 01:52:09 10° N visible
21 Oct 9.7 02:17:34 10° N 02:18:19 10° N 02:19:05 10° NNE visible
22 Oct 9.6 02:42:55 10° NNW 02:45:14 13° NNE 02:47:34 10° NE visible
23 Oct 9.9 01:28:36 10° N 01:28:36 10° N 01:28:46 10° N visible
23 Oct 9.2 03:08:22 10° NNW 03:11:58 20° NNE 03:15:33 10° ENE visible
24 Oct 9.6 01:53:40 11° N 01:55:07 13° NNE 01:57:17 10° NE visible
25 Oct 9.3 02:18:48 11° NNW 02:21:52 19° NNE 02:25:21 10° ENE visible
26 Oct 10.0 01:06:18 11° NNE 01:06:18 11° NNE 01:07:00 10° NE visible
26 Oct 8.5 02:43:58 10° NNW 02:48:22 34° NNE 02:52:46 10° E visible
27 Oct 9.3 01:31:33 18° NNE 01:31:47 18° NNE 01:35:07 10° ENE visible
27 Oct 7.4 03:09:47 10° NW 03:14:36 76° NE 03:19:24 10° SE visible
28 Oct 8.6 01:56:53 27° N 01:58:18 32° NNE 02:02:37 10° E visible
